DELTA 1 R/B, 3346

Orbit data source: Space-Track

DELTA 1 R/B, 3346 is space debris in SSO originally from a launch on Fri, 16 Aug 1968 UTC launched from the Air Force Western Test Range (AFWTR). Debris objects in space refer to the collection of defunct objects orbiting the Earth. Examples of debris include non-operational satellites, rocket bodies, and fragments generated from explosions, collisions, or faulty payload assembly.

Loading next visibility...
Identifier
3346, 1968-069B
Orbit
SSO
Country
Flag of USUS
Related business
Manufacturer
Aerojet
Mission
Spacecraft
Bus & Motor
ABLESTAR, Unknown motor
Mass
~785 kg wet, ~785 kg dry
Launch date (UTC)
1968-08-16 (57 years ago)
Launch vehicle
Unknown
Launch site
Air Force Western Test Range (AFWTR)
Object type
Payload
Rocket body
Debris
Shape & HBR
Unknown
Radar Cross Section
Large (>1 m²)

Expand to show TLE details & history
Last TLE update: 22 hours ago

TLE from 22 hours ago
0 DELTA 1 R/B
1 03346U 68069B   25347.18110604 -.00000015  00000-0  17883-3 0  9994
2 03346 101.5109 312.3351 0024060   1.7038   8.8958 12.54341330624314
Epoch: 2025-12-13T04:20Z
TLE epoch observation values (Epoch: 2025-12-13T04:20:47.561Z)
Latitude
10.37941°
Longitude
162.89771°
Altitude
1,429.634 km
Speed
7.156 km/s
True Right ascension
20h 40m 49s
True Declination
10° 19' 26"
Sunlit
Object was in daylight at epoch
Visualization orbit readout
Latitude
Unknown
Longitude
Unknown
Altitude
Unknown
Speed
Unknown
Apparent Right ascension
Unknown
Apparent Declination
Unknown
Sunlit
N/A
Visualization observer readout
Local Sidereal Time
00:32:37
Azimuth
Unknown
Elevation
Unknown
Doppler factor
Unknown
Orbital elements
Apogee altitude
1,462.736 km
Perigee altitude
1,425.096 km
Semi-major axis
7,822.053 km
Eccentricity
0.00241
Inclination
101.5109°
RAAN
312.3351°
Arg. of periapsis
1.7038°
True anomaly
8.93856°
Mean anomaly
8.8958°
Eccentric anomaly
8.91717°
Mean motion
3.13734 °/min
Orbital period
114.75 mins
BSTAR
0.00017883
Loading maneuver chart data...
Computing Atmospheric mass density...
Loading historical data...
Loading historical data...
Loading historical data...
Loading historical data...
Loading historical data...
Loading historical data...
Loading historical data...

Documentation

Showing up to 5 results
|